Hourly Data Report for October 27, 2016

All times are specified in Local Standard Time (LST). Add 1 hour to adjust for Daylight Saving Time where and when it is observed.

ARVIAT A
NUNAVUT

61°05'38.000" N
94°04'18.000" W
10.40 m
2300427
71174
YEK

Related Data

No related data is available for this station

Download Data

Hourly Data (October 2016)
Hourly Data Report for October 27, 2016
Temp Definition
°C
Dew Point Temp Definition
°C
Rel Hum Definition
%
Wind Dir Definition
10's deg

Wind Spd Definition
km/h
Visibility Definition
km
Stn Press Definition
kPa
Hmdx Definition


Wind Chill Definition


Weather Definition


TIME
00:00 Legend Double Dagger -0.3 -0.6 98 16 13 16.1 101.94   -4 Snow
01:00 Legend Double Dagger -0.1 -0.1 100 14 13 11.3 101.89   -4 Snow
02:00 Legend Double Dagger 0.3 0.3 100 16 21 4.8 101.83     Freezing Rain,Snow
03:00 Legend Double Dagger 0.6 0.5 99 17 17 16.1 101.78     Rain
04:00 Legend Double Dagger 0.5 0.5 100 16 21 16.1 101.71     Rain
05:00 Legend Double Dagger 0.5 0.5 100 16 18 16.1 101.63     Rain
06:00 Legend Double Dagger 0.2 0.2 100 24 5 2.8 101.60     Snow
07:00 Legend Double Dagger 0.0 0.0 100   0 2.0 101.58     Snow
08:00 Legend Double Dagger -0.2 -0.2 100 4 4 2.8 101.56   -1 Snow
09:00 Legend Double Dagger -0.1 -0.1 100 9 5 1.2 101.51   -2 Snow
10:00 Legend Double Dagger 0.1 0.1 100 6 5 1.6 101.46     Snow
11:00 Legend Double Dagger 0.1 0.1 100 9 5 1.6 101.42     Snow
12:00 Legend Double Dagger 0.3 0.3 100 3 4 4.0 101.39     Snow
13:00 Legend Double Dagger -0.3 -0.3 100 1 17 1.2 101.36   -5 Snow
14:00 Legend Double Dagger -1.1 -1.1 100 35 22 1.0 101.35   -7 Snow
15:00 Legend Double Dagger -1.3 -1.3 100 36 21 0.6 101.31   -7 Freezing Rain,Freezing Fog
16:00 Legend Double Dagger -2.0 -2.0 100 35 24 1.2 101.29   -8 Fog
17:00 Legend Double Dagger -2.4 -2.4 100 36 24 1.2 101.31   -9 Fog
18:00 Legend Double Dagger -3.0 -3.0 100 35 21 3.6 101.33   -9 Fog
19:00 Legend Double Dagger -3.6 -3.6 100 35 22 16.1 101.32   -10 LegendNANA
20:00 Legend Double Dagger -4.4 -4.4 100 35 24 16.1 101.32   -11 LegendNANA
21:00 Legend Double Dagger -6.8 -6.9 99 34 17 16.1 101.33   -13 LegendNANA
22:00 Legend Double Dagger -6.5 -6.8 98 33 18 16.1 101.34   -13 LegendNANA
23:00 Legend Double Dagger -8.8 -9.2 97 33 21 16.1 101.35   -17 LegendNANA

Notes on Data Quality.

Legend

  • E = Estimated
  • M = Missing
  • NA = Not Available
  • ‡ = Partner data that is not subject to review by the National Climate Archives
Date modified: